CDG8808 ZSJN-ZYTL

Flight info

Callsign CDG8808
Flight time 0h 44m
Altitude 31100
Route BASOV9Z BASOV W4 HCH W173 NIXEP NIX06A
Aircraft B738/M-SDE2E3FGHIRWXY/LB1

Departure

Time 2026-04-15 01:25
Airport Jinan Yaoqiang International Airport (ZSJN)

Arrival

Time 2026-04-15 02:10
Airport Dalian Zhoushuizi International Airport (ZYTL)
Time Latitude Longitude Altitude Speed Heading
2026-04-15 00:57 36.86088 117.21169 83 ft 0 kts 269°
2026-04-15 01:17 36.86088 117.21187 83 ft 2 kts 269°
2026-04-15 01:17 36.86088 117.21224 83 ft 2 kts 269°
2026-04-15 01:17 36.86089 117.21243 83 ft 2 kts 273°
2026-04-15 01:18 36.86083 117.21260 83 ft 2 kts 310°
2026-04-15 01:18 36.86071 117.21272 83 ft 2 kts 340°
2026-04-15 01:18 36.86063 117.21275 83 ft 0 kts 358°
2026-04-15 01:18 36.86056 117.21274 83 ft 0 kts 360°
2026-04-15 01:21 36.86092 117.21274 83 ft 10 kts 359°
2026-04-15 01:21 36.86191 117.21273 83 ft 16 kts 359°
2026-04-15 01:21 36.86328 117.21274 83 ft 21 kts 359°
2026-04-15 01:21 36.86478 117.21270 83 ft 21 kts 355°
2026-04-15 01:22 36.86618 117.21274 83 ft 19 kts 359°
2026-04-15 01:22 36.86751 117.21274 83 ft 18 kts
2026-04-15 01:22 36.86890 117.21274 83 ft 21 kts 360°
2026-04-15 01:22 36.87053 117.21273 83 ft 25 kts 359°
2026-04-15 01:23 36.87242 117.21273 83 ft 27 kts 359°
2026-04-15 01:23 36.87340 117.21345 83 ft 16 kts 81°
2026-04-15 01:23 36.87344 117.21481 83 ft 15 kts 89°
2026-04-15 01:23 36.87330 117.21596 83 ft 9 kts 154°
2026-04-15 01:24 36.87324 117.21596 83 ft 0 kts 182°
2026-04-15 01:24 36.87323 117.21596 83 ft 1 kts 182°
2026-04-15 01:24 36.87184 117.21599 83 ft 51 kts 180°
2026-04-15 01:24 36.86612 117.21600 83 ft 112 kts 179°
2026-04-15 01:25 36.85654 117.21600 84 ft 162 kts 179°
2026-04-15 01:25 36.84404 117.21582 239 ft 188 kts 180°
2026-04-15 01:25 36.83076 117.21497 714 ft 198 kts 184°
2026-04-15 01:25 36.81796 117.21471 1670 ft 178 kts 175°
2026-04-15 01:26 36.80573 117.21562 2095 ft 183 kts 176°
2026-04-15 01:26 36.79228 117.21690 2314 ft 199 kts 162°
2026-04-15 01:26 36.78099 117.22692 2494 ft 214 kts 120°
2026-04-15 01:26 36.77752 117.24528 2754 ft 229 kts 84°
2026-04-15 01:27 36.78290 117.26427 3179 ft 238 kts 56°
2026-04-15 01:27 36.79260 117.28063 3789 ft 239 kts 55°
2026-04-15 01:27 36.80102 117.29866 4379 ft 242 kts 66°
2026-04-15 01:27 36.80689 117.31827 5033 ft 241 kts 72°
2026-04-15 01:28 36.81207 117.33813 5631 ft 243 kts 68°
2026-04-15 01:28 36.82130 117.35561 6195 ft 247 kts 41°
2026-04-15 01:28 36.83630 117.36610 6693 ft 256 kts 18°
2026-04-15 01:28 36.85450 117.36913 7047 ft 271 kts
2026-04-15 01:29 36.87336 117.36877 7621 ft 275 kts
2026-04-15 01:29 36.89240 117.36862 8281 ft 276 kts
2026-04-15 01:29 36.91182 117.36869 8964 ft 277 kts
2026-04-15 01:29 36.93112 117.36880 9622 ft 280 kts
2026-04-15 01:30 36.95050 117.36887 10284 ft 282 kts
2026-04-15 01:30 36.97056 117.36895 10632 ft 296 kts
2026-04-15 01:30 36.99162 117.36900 10986 ft 310 kts
2026-04-15 01:30 37.01365 117.36904 11279 ft 326 kts
2026-04-15 01:31 37.03682 117.36907 11628 ft 340 kts
2026-04-15 01:31 37.06103 117.36911 11929 ft 354 kts 360°
2026-04-15 01:31 37.08614 117.36914 12199 ft 370 kts 360°
2026-04-15 01:31 37.11232 117.36932 12465 ft 384 kts
2026-04-15 01:32 37.13937 117.37187 12842 ft 396 kts
2026-04-15 01:32 37.16674 117.37660 13404 ft 402 kts
2026-04-15 01:32 37.19470 117.38245 14052 ft 406 kts
2026-04-15 01:32 37.22230 117.38856 14721 ft 409 kts
2026-04-15 01:33 37.25073 117.39482 15349 ft 414 kts
2026-04-15 01:33 37.27880 117.40263 15996 ft 420 kts 14°
2026-04-15 01:33 37.30574 117.41673 16610 ft 427 kts 26°
2026-04-15 01:33 37.33005 117.43924 17164 ft 438 kts 41°
2026-04-15 01:34 37.34929 117.46881 17780 ft 446 kts 53°
2026-04-15 01:34 37.36374 117.50349 18243 ft 457 kts 65°
2026-04-15 01:34 37.37282 117.54209 18870 ft 463 kts 74°
2026-04-15 01:34 37.37928 117.58214 19374 ft 470 kts 77°
2026-04-15 01:35 37.38462 117.62264 19900 ft 476 kts 78°
2026-04-15 01:35 37.38956 117.66406 20417 ft 481 kts 79°
2026-04-15 01:35 37.39433 117.70536 20876 ft 486 kts 79°
2026-04-15 01:35 37.39920 117.74764 21355 ft 491 kts 79°
2026-04-15 01:36 37.40419 117.79037 21879 ft 495 kts 79°
2026-04-15 01:36 37.40930 117.83331 22318 ft 500 kts 78°
2026-04-15 01:36 37.41451 117.87637 22826 ft 503 kts 78°
2026-04-15 01:36 37.41983 117.91979 23252 ft 508 kts 78°
2026-04-15 01:37 37.42526 117.96365 23697 ft 512 kts 78°
2026-04-15 01:37 37.43075 118.00788 24148 ft 516 kts 78°
2026-04-15 01:37 37.43637 118.05297 24541 ft 521 kts 78°
2026-04-15 01:37 37.44197 118.09791 24905 ft 526 kts 78°
2026-04-15 01:38 37.44761 118.14325 25298 ft 530 kts 78°
2026-04-15 01:38 37.45325 118.18874 25813 ft 530 kts 78°
2026-04-15 01:38 37.45889 118.23440 26418 ft 529 kts 78°
2026-04-15 01:38 37.46455 118.27980 26927 ft 529 kts 78°
2026-04-15 01:39 37.47033 118.32555 27432 ft 530 kts 78°
2026-04-15 01:39 37.47617 118.37140 27896 ft 530 kts 78°
2026-04-15 01:39 37.48201 118.41715 28296 ft 532 kts 78°
2026-04-15 01:39 37.48780 118.46262 28744 ft 533 kts 78°
2026-04-15 01:40 37.49361 118.50845 29137 ft 534 kts 78°
2026-04-15 01:40 37.49943 118.55473 29541 ft 535 kts 78°
2026-04-15 01:40 37.50525 118.60108 29949 ft 535 kts 78°
2026-04-15 01:40 37.51100 118.64717 30319 ft 536 kts 78°
2026-04-15 01:41 37.51672 118.69319 30729 ft 535 kts 79°
2026-04-15 01:41 37.52252 118.73997 30960 ft 537 kts 79°
2026-04-15 01:41 37.52826 118.78637 31125 ft 539 kts 79°
2026-04-15 01:41 37.53342 118.83308 31109 ft 537 kts 81°
2026-04-15 01:42 37.54090 118.92666 31119 ft 536 kts 83°
2026-04-15 01:42 37.54700 119.02097 31118 ft 537 kts 84°
2026-04-15 01:43 37.55310 119.11482 31113 ft 536 kts 83°
2026-04-15 01:43 37.55945 119.20790 31117 ft 536 kts 83°
2026-04-15 01:44 37.56605 119.30164 31117 ft 536 kts 83°
2026-04-15 01:44 37.57263 119.39463 31114 ft 536 kts 83°
2026-04-15 01:45 37.57922 119.48806 31119 ft 535 kts 83°
2026-04-15 01:45 37.58570 119.58154 31116 ft 537 kts 83°
2026-04-15 01:46 37.59187 119.67454 31111 ft 535 kts 84°
2026-04-15 01:46 37.59846 119.76769 31110 ft 535 kts 83°
2026-04-15 01:47 37.60553 119.86075 31108 ft 536 kts 83°
2026-04-15 01:47 37.61266 119.95407 31107 ft 535 kts 83°
2026-04-15 01:48 37.61961 120.04723 31107 ft 536 kts 83°
2026-04-15 01:48 37.62640 120.14042 31107 ft 535 kts 83°
2026-04-15 01:49 37.63308 120.23342 31110 ft 536 kts 83°
2026-04-15 01:49 37.63973 120.32741 31112 ft 536 kts 83°
2026-04-15 01:50 37.64738 120.42005 31113 ft 535 kts 78°
2026-04-15 01:50 37.67095 120.50805 31114 ft 524 kts 56°
2026-04-15 01:51 37.69100 120.54522 31116 ft 518 kts 45°
2026-04-15 01:51 37.71494 120.57928 31115 ft 514 kts 39°
2026-04-15 01:51 37.76956 120.63505 31076 ft 501 kts 26°
2026-04-15 01:52 37.79892 120.65819 30660 ft 494 kts 24°
2026-04-15 01:52 37.82834 120.67947 30232 ft 487 kts 22°
2026-04-15 01:52 37.85789 120.70006 29426 ft 492 kts 22°
2026-04-15 01:52 37.88810 120.72088 28491 ft 495 kts 22°
2026-04-15 01:53 37.91842 120.74195 27499 ft 500 kts 23°
2026-04-15 01:53 37.94904 120.76356 26430 ft 505 kts 24°
2026-04-15 01:53 37.97958 120.78550 25294 ft 510 kts 25°
2026-04-15 01:53 38.01001 120.80767 24342 ft 500 kts 26°
2026-04-15 01:54 38.03942 120.82949 23631 ft 480 kts 27°
2026-04-15 01:54 38.06756 120.85061 22871 ft 463 kts 27°
2026-04-15 01:54 38.09473 120.87110 22119 ft 448 kts 27°
2026-04-15 01:54 38.12096 120.89093 21379 ft 438 kts 27°
2026-04-15 01:55 38.14707 120.91061 20640 ft 441 kts 27°
2026-04-15 01:55 38.17319 120.93026 19868 ft 434 kts 27°
2026-04-15 01:55 38.19873 120.94952 19112 ft 419 kts 27°
2026-04-15 01:55 38.22377 120.96787 18324 ft 414 kts 26°
2026-04-15 01:56 38.24925 120.98444 17549 ft 413 kts 22°
2026-04-15 01:56 38.27579 120.99812 16779 ft 404 kts 18°
2026-04-15 01:56 38.30187 121.00915 16050 ft 391 kts 15°
2026-04-15 01:56 38.32771 121.01876 15360 ft 395 kts 14°
2026-04-15 01:57 38.35420 121.02808 14641 ft 393 kts 14°
2026-04-15 01:57 38.38031 121.03722 13923 ft 379 kts 15°
2026-04-15 01:57 38.40539 121.04609 13258 ft 379 kts 15°
2026-04-15 01:57 38.43090 121.05525 12553 ft 380 kts 15°
2026-04-15 01:58 38.45571 121.06429 11848 ft 368 kts 16°
2026-04-15 01:58 38.47967 121.07313 11332 ft 348 kts 16°
2026-04-15 01:58 38.50232 121.08154 11122 ft 329 kts 16°
2026-04-15 01:58 38.52435 121.08973 10983 ft 334 kts 16°
2026-04-15 01:59 38.54628 121.09790 10807 ft 320 kts 16°
2026-04-15 01:59 38.56712 121.10567 10620 ft 298 kts 16°
2026-04-15 01:59 38.58625 121.11279 10458 ft 279 kts 16°
2026-04-15 01:59 38.60500 121.11978 10323 ft 283 kts 16°
2026-04-15 02:00 38.62373 121.12676 10160 ft 276 kts 16°
2026-04-15 02:00 38.64180 121.13351 9900 ft 262 kts 16°
2026-04-15 02:00 38.65884 121.13986 9535 ft 254 kts 16°
2026-04-15 02:00 38.67569 121.14616 9202 ft 250 kts 16°
2026-04-15 02:01 38.69268 121.15250 8863 ft 260 kts 16°
2026-04-15 02:01 38.70987 121.15891 8516 ft 257 kts 16°
2026-04-15 02:01 38.72670 121.16520 8180 ft 248 kts 16°
2026-04-15 02:01 38.74358 121.17150 7866 ft 258 kts 16°
2026-04-15 02:02 38.76087 121.17797 7500 ft 258 kts 16°
2026-04-15 02:02 38.77791 121.18434 7167 ft 249 kts 16°
2026-04-15 02:02 38.79436 121.19049 6846 ft 254 kts 16°
2026-04-15 02:02 38.81159 121.19694 6489 ft 257 kts 16°
2026-04-15 02:03 38.82863 121.20333 6140 ft 249 kts 16°
2026-04-15 02:03 38.84502 121.20948 5827 ft 251 kts 16°
2026-04-15 02:03 38.86203 121.21586 5486 ft 256 kts 16°
2026-04-15 02:03 38.87892 121.22219 5219 ft 243 kts 16°
2026-04-15 02:04 38.89483 121.22817 5032 ft 234 kts 16°
2026-04-15 02:04 38.91033 121.23399 4813 ft 233 kts 16°
2026-04-15 02:04 38.92578 121.23980 4584 ft 229 kts 16°
2026-04-15 02:04 38.94075 121.24543 4290 ft 221 kts 16°
2026-04-15 02:05 38.95530 121.25108 4066 ft 211 kts 19°
2026-04-15 02:05 38.96803 121.25977 3844 ft 207 kts 43°
2026-04-15 02:05 38.97517 121.27509 3663 ft 201 kts 78°
2026-04-15 02:05 38.97533 121.29263 3511 ft 194 kts 96°
2026-04-15 02:06 38.97392 121.30964 3307 ft 189 kts 92°
2026-04-15 02:06 38.97339 121.32647 3129 ft 188 kts 89°
2026-04-15 02:06 38.97303 121.34316 2982 ft 187 kts 90°
2026-04-15 02:06 38.97252 121.35973 2872 ft 186 kts 91°
2026-04-15 02:07 38.97199 121.37653 2585 ft 191 kts 91°
2026-04-15 02:07 38.97148 121.39356 2312 ft 190 kts 91°
2026-04-15 02:07 38.97096 121.41009 2000 ft 183 kts 90°
2026-04-15 02:07 38.97048 121.42587 1763 ft 170 kts 90°
2026-04-15 02:08 38.97003 121.44065 1522 ft 157 kts 90°
2026-04-15 02:08 38.96959 121.45431 1258 ft 148 kts 90°
2026-04-15 02:08 38.96920 121.46715 1065 ft 145 kts 90°
2026-04-15 02:08 38.96876 121.48011 861 ft 146 kts 90°
2026-04-15 02:09 38.96825 121.49307 656 ft 145 kts 90°
2026-04-15 02:09 38.96789 121.50580 428 ft 143 kts 88°
2026-04-15 02:09 38.96717 121.51852 204 ft 142 kts 93°
2026-04-15 02:09 38.96618 121.53059 115 ft 128 kts 95°
2026-04-15 02:10 38.96573 121.53908 114 ft 64 kts 98°
2026-04-15 02:10 38.96525 121.54253 114 ft 20 kts 140°
2026-04-15 02:10 38.96433 121.54387 114 ft 13 kts 121°
2026-04-15 02:10 38.96358 121.54419 114 ft 12 kts 215°
2026-04-15 02:11 38.96355 121.54330 114 ft 10 kts 277°
2026-04-15 02:11 38.96337 121.54256 114 ft 9 kts 209°
2026-04-15 02:11 38.96277 121.54244 114 ft 8 kts 183°
2026-04-15 02:11 38.96242 121.54242 114 ft 1 kts 180°
2026-04-15 02:12 38.96238 121.54242 114 ft 0 kts 181°
2026-04-15 02:12 38.96231 121.54242 114 ft 1 kts 181°
2026-04-15 02:12 38.96229 121.54242 114 ft 0 kts 181°